Location: Long Barn
(38.0930°N, 120.1344°W)
Time: 21:57:04
(UTC+00:00)

Cosmos 1674 Rocket - Pass Details

Date: 05 August 2024
Orbit: 599 x 625 km, 82.5° (Epoch: 08 September)

Event Time Altitude Azimuth Distance (km) Brightness Sun altitude
Rises 12:19:01 0° 357° (N) 2,917 7.4 -9.4°
Reaches altitude 10° 12:21:18 10° 2° (N) 2,007 6.6 -9.0°
Maximum altitude 12:25:40 57° 81° (E) 742 4.4 -8.2°
Drops below altitude 10° 12:30:01 10° 160° (SSE) 1,990 6.1 -7.5°
Sets 12:32:16 0° 164° (SSE) 2,889 6.9 -7.1°
